Debian Project Data capturing time window:
Thu Jan 19 21:10:01 2017 UTC
- Thu Jan 19 23:07:51 2017 UTC
HTML-file creation time: Thu Jan 19 23:07:51 2017 UTC
 

Debian Mirror Checker

DMC version: 0.8.8

main, volatile, www, CD

Section: main

RHostTftp-master time TS Updateftphttprsync
1debian-mirror.sakura.ne.jpL Thu Jan 19 20:48:45 UTC 2017   X: 4OkOk
1mirror.easyspeedy.comL Thu Jan 19 20:48:45 UTC 2017   X: 4OkOk
1ftp.de.debian.orgP Thu Jan 19 20:48:45 UTC 2017   X: 4OkOk
1debian.mur.atL Thu Jan 19 20:48:45 UTC 20172 XX: 4Ok.
1ftp.kr.debian.orgP Thu Jan 19 20:48:45 UTC 2017   X: 4OkOk
1dennou-q.gfd-dennou.orgS Thu Jan 19 20:48:45 UTC 2017   X: 4Ok.
1ftp.fsn.huS Thu Jan 19 20:48:45 UTC 2017   X: 4OkOk
1mirrors.dotsrc.orgS Thu Jan 19 20:48:45 UTC 2017   X: 4OkOk
1debian.mirror.iweb.caP Thu Jan 19 20:48:45 UTC 2017   X: 4OkOk
1debian.gnu.gen.trL Thu Jan 19 20:48:45 UTC 2017   X: 9OkX: 68
1debian.serverspace.co.ukL Thu Jan 19 20:48:45 UTC 20172 XX: 4OkOk
1mirror.positive-internet.comS Thu Jan 19 20:48:45 UTC 2017   X: 4Ok.
1debian.pop-sc.rnp.brL Thu Jan 19 20:48:45 UTC 2017   .Ok.
1debian-archive.trafficmanager.net? Thu Jan 19 20:48:45 UTC 2017   .Ok.
1dist1.800hosting.comL Thu Jan 19 20:48:45 UTC 2017   X: 4Ok.
1ftp.tku.edu.twS Thu Jan 19 20:48:45 UTC 2017   X: 4Ok.
1ftp.is.debian.orgS Thu Jan 19 20:48:45 UTC 20177  X: 15OkOk
1mirror.iway.chL Thu Jan 19 20:48:45 UTC 2017   X: 4OkX: 73
1debmirror.amis.netP Thu Jan 19 20:48:45 UTC 2017   X: 4OkOk
1mirrors.xmission.comL Thu Jan 19 20:48:45 UTC 2017   X: 4OkOk
1ftp.es.debian.orgP Thu Jan 19 20:48:45 UTC 20177  X: 4OkOk
1ftp.uio.noS Thu Jan 19 20:48:45 UTC 2017   X: 4OkOk
1mirrors.ocf.berkeley.eduL Thu Jan 19 20:48:45 UTC 2017   X: 4OkOk
1debian.mirror.ate.infoL Thu Jan 19 20:48:45 UTC 2017   .Ok.
1mirror.as35701.netS Thu Jan 19 20:48:45 UTC 2017   X: 4OkOk
1ftp2.de.debian.orgP Thu Jan 19 20:48:45 UTC 20177  X: 4OkOk
1debian.uchicago.eduL Thu Jan 19 20:48:45 UTC 2017   X: 4Ok.
1httpredir.debian.org? Thu Jan 19 20:48:45 UTC 20177  .X: 20.
1ftp.agh.edu.plS Thu Jan 19 20:48:45 UTC 2017   X: 4Ok.
1mirror.atomki.mta.huL Thu Jan 19 20:48:45 UTC 2017   .Ok.
1ftp.tw.debian.orgP Thu Jan 19 20:48:45 UTC 2017   X: 4OkOk
1ftp.hu.debian.orgS Thu Jan 19 20:48:45 UTC 20177  X: 4OkOk
1ftp.uni-sofia.bgL Thu Jan 19 20:48:45 UTC 2017   X: 4OkOk
1ftp.ccc.uba.arL Thu Jan 19 20:48:45 UTC 2017   X: 4Ok.
1mirror.picosecond.orgL Thu Jan 19 20:48:45 UTC 20172 XX: 54Ok.
1debian.c3sl.ufpr.brP Thu Jan 19 20:48:45 UTC 2017   X: 4OkOk
1mirror.its.dal.caS Thu Jan 19 20:48:45 UTC 20172  X: 4OkOk
1ftp.is.co.zaL Thu Jan 19 20:48:45 UTC 2017   X: 4OkOk
1trumpetti.atm.tut.fiP Thu Jan 19 20:48:45 UTC 2017   X: 4OkOk
1debian.carnet.hrP Thu Jan 19 20:48:45 UTC 20177  X: 4OkOk
1debian.osuosl.orgP Thu Jan 19 20:48:45 UTC 20177  X: 4Ok.
1sft.if.usp.brS Thu Jan 19 20:48:45 UTC 2017   .OkOk
1mirror.math.princeton.eduL Thu Jan 19 20:48:45 UTC 2017   .OkOk
1ftp.aso.eeP Thu Jan 19 20:48:45 UTC 20172 XX: 4OkOk
1ftp.bg.debian.orgS Thu Jan 19 20:48:45 UTC 20177  X: 4OkOk
1the.earth.liL Thu Jan 19 20:48:45 UTC 2017   X: 4OkOk
1debian.univ-lorraine.frS Thu Jan 19 20:48:45 UTC 2017   X: 4Ok.
1mirror.lchost.netL Thu Jan 19 20:48:45 UTC 2017   X: 4Ok.
1debian.lth.seS Thu Jan 19 20:48:45 UTC 2017   X: 4Ok.
1mirror.linux.org.auP Thu Jan 19 20:48:45 UTC 2017   X: 69OkX: 89
1ftp.jp.debian.orgP Thu Jan 19 20:48:45 UTC 2017   X: 4Ok.
1ftp.linux.org.trS Thu Jan 19 20:48:45 UTC 20177  X: 4OkOk
1debian.noc.ntua.grP Thu Jan 19 20:48:45 UTC 2017   X: 4OkOk
1ftp.corbina.netL Thu Jan 19 20:48:45 UTC 2017   X: 4OkX: 90
1ftp.uni-stuttgart.deL Thu Jan 19 20:48:45 UTC 2017   X: 4OkOk
1debian.fastweb.itL Thu Jan 19 20:48:45 UTC 20172,7 XX: 4OkX: 92
1free.hands.comP Thu Jan 19 20:48:45 UTC 2017   X: 4OkOk
1ftp.no.debian.orgS Thu Jan 19 20:48:45 UTC 20177  X: 4OkX: 93
1ftp.hr.debian.orgP Thu Jan 19 20:48:45 UTC 20177  X: 4OkOk
1mirrorservice.orgL Thu Jan 19 20:48:45 UTC 2017   X: 4OkOk
1debian.univ-tlse2.frL Thu Jan 19 20:48:45 UTC 2017   X: 4Ok.
1debian.uberglobalmirror.comL Thu Jan 19 20:48:45 UTC 20172  .OkOk
1mirror.crucial.com.auL Thu Jan 19 20:48:45 UTC 20177 XX: 9X: 20Ok
1mirrors.wikimedia.orgL Thu Jan 19 20:48:45 UTC 2017   .Ok.
1debian.usu.eduL Thu Jan 19 20:48:45 UTC 20177  .Ok.
1mirrors.melbourne.co.ukS Thu Jan 19 20:48:45 UTC 2017   X: 4Ok.
1ftp.md.debian.org? Thu Jan 19 20:48:45 UTC 20177  X: 4OkOk
1debian.bsnet.seL Thu Jan 19 20:48:45 UTC 20177  X: 4Ok.
1mirror.sinavps.chS Thu Jan 19 20:48:45 UTC 2017   X: 4OkX: 77
1ftp2.debian.org.uaS Thu Jan 19 20:48:45 UTC 20177  X: 4OkOk
1ftp.it.debian.orgS Thu Jan 19 20:48:45 UTC 20172,7 XX: 4OkX: 78
1ftp.task.gda.plP Thu Jan 19 20:48:45 UTC 2017   X: 4OkOk
1ftp.si.debian.orgP Thu Jan 19 20:48:45 UTC 20177  X: 4OkOk
1debian.ethz.chP Thu Jan 19 20:48:45 UTC 2017   X: 4OkOk
1ftp.ticklers.orgL Thu Jan 19 20:48:45 UTC 2017   X: 4OkX: 79
1ftp.fr.debian.orgP Thu Jan 19 20:48:45 UTC 20177  X: 4OkOk
1ftp.acc.umu.seP Thu Jan 19 20:48:45 UTC 2017   X: 4OkOk
1debian.bononia.itL Thu Jan 19 20:48:45 UTC 2017   X: 4OkOk
1mirror.liquidtelecom.comL Thu Jan 19 20:48:45 UTC 2017   X: 4OkOk
1mirror.as43289.netP Thu Jan 19 20:48:45 UTC 2017   X: 4OkOk
1ftp.availo.seL Thu Jan 19 20:48:45 UTC 20177  X: 4Ok.
1debian.balt.netL Thu Jan 19 20:48:45 UTC 2017   X: 4Ok.
1mirror.datacenter.byL Thu Jan 19 20:48:45 UTC 2017   X: 4OkOk
1ftp.gul.uc3m.esS Thu Jan 19 20:48:45 UTC 2017   X: 4OkX: 60
1ftp2.fr.debian.orgS Thu Jan 19 20:48:45 UTC 2017   X: 4OkX: 85
1debian.linux.edu.lvS Thu Jan 19 20:48:45 UTC 2017   X: 4OkOk
1debian.mirror.neology.co.zaL Thu Jan 19 20:48:45 UTC 20172 XX: 15OkX: 21
1mirror.waia.asn.auP Thu Jan 19 20:48:45 UTC 2017   X: 4OkOk
1mirror.it.ubc.caS Thu Jan 19 20:48:45 UTC 2017   .Ok.
1ftp.sk.debian.orgP Thu Jan 19 20:48:45 UTC 20177  X: 4OkOk
1mirrors.cat.pdx.eduL Thu Jan 19 20:48:45 UTC 2017   .OkOk
1ftp.ro.debian.orgP Thu Jan 19 20:48:45 UTC 20177  X: 4OkOk
1ftp.halifax.rwth-aachen.deP Thu Jan 19 20:48:45 UTC 2017   X: 4OkOk
1mirror.1und1.deS Thu Jan 19 20:48:45 UTC 2017   X: 9OkOk
1ftp.debian.chuvsu.ruL Thu Jan 19 20:48:45 UTC 2017   X: 4Ok.
1mirrors.ustc.edu.cnP Thu Jan 19 20:48:45 UTC 2017   X: 4OkOk
1ftp.au.debian.orgP Thu Jan 19 20:48:45 UTC 20172,7 XX: 4OkOk
1ftp.be.debian.orgS Thu Jan 19 20:48:45 UTC 20177  X: 4OkOk
1mirror.switch.chS Thu Jan 19 20:48:45 UTC 2017   X: 4Ok.
1debian.simnet.isS Thu Jan 19 20:48:45 UTC 2017   X: 15OkOk
1ftp.dk.debian.orgS Thu Jan 19 20:48:45 UTC 20177  X: 4OkOk
1ftp.cn.debian.orgP Thu Jan 19 20:48:45 UTC 20177  X: 4OkOk
1debian.mirror.lrz.deL Thu Jan 19 20:48:45 UTC 20172 X.OkOk
1debian.csail.mit.eduP Thu Jan 19 20:48:45 UTC 2017   X: 4OkOk
1mirrors.bloomu.eduL Thu Jan 19 20:48:45 UTC 20172 XX: 4OkOk
1ftp.by.debian.orgS Thu Jan 19 20:48:45 UTC 20172 XX: 4OkOk
1ftp.nl.debian.orgP Thu Jan 19 20:48:45 UTC 2017   X: 4OkOk
1ftp5.gwdg.deL Thu Jan 19 20:48:45 UTC 20172,7 XX: 4OkOk
1dennou-k.gfd-dennou.orgS Thu Jan 19 20:48:45 UTC 2017   X: 4OkX: 16
1debian.mirror.rafal.caP Thu Jan 19 20:48:45 UTC 2017   X: 4OkOk
1ftp.cz.debian.orgP Thu Jan 19 20:48:45 UTC 2017   X: 4OkOk
1debian.gtisc.gatech.eduS Thu Jan 19 20:48:45 UTC 2017   X: 4OkOk
1ftp.ch.debian.orgP Thu Jan 19 20:48:45 UTC 20177  X: 4OkOk
1softlibre.unizar.esL Thu Jan 19 20:48:45 UTC 2017   .OkOk
1ftp.lt.debian.orgS Thu Jan 19 20:48:45 UTC 20177  X: 4OkOk
1debian.spnet.netS Thu Jan 19 20:48:45 UTC 20177 XX: 4OkOk
1shadow.ind.ntou.edu.twS Thu Jan 19 20:48:45 UTC 2017   X: 4OkOk
1mirror.bytemark.co.ukS Thu Jan 19 20:48:45 UTC 20172 XX: 4OkOk
1ulises.hostalia.comP Thu Jan 19 20:48:45 UTC 2017   X: 4OkOk
1debian.sil.atS Thu Jan 19 20:48:45 UTC 2017   X: 4OkOk
1mirrors.kernel.orgP Thu Jan 19 20:48:45 UTC 2017   X: 4OkOk
1ftp.ru.debian.orgL Thu Jan 19 20:48:45 UTC 20177  X: 4OkOk
1ftp.tr.debian.orgS Thu Jan 19 20:48:45 UTC 20172 XX: 4OkOk
1ftp.gr.debian.orgP Thu Jan 19 20:48:45 UTC 20177  X: 4OkOk
1mirror.csclub.uwaterloo.caL Thu Jan 19 20:48:45 UTC 2017   X: 4OkOk
1ftp.irb.hrL Thu Jan 19 20:48:45 UTC 20177  X: 1Ok.
1mirror.yandex.ruL Thu Jan 19 20:48:45 UTC 20172  X: 4OkOk
1mirrors.fe.up.ptL Thu Jan 19 20:48:45 UTC 2017  XX: 4OkOk
1ftp.uni-kl.deS Thu Jan 19 20:48:45 UTC 2017   X: 4Ok.
1ftp.at.debian.orgS Thu Jan 19 20:48:45 UTC 20177  X: 4OkOk
1ftp.carnet.hrS Thu Jan 19 20:48:45 UTC 20177  X: 4Ok.
1debian.anexia.atL Thu Jan 19 20:48:45 UTC 2017  XX: 4OkOk
1mirrors.accretive-networks.netL Thu Jan 19 20:48:45 UTC 2017   X: 4OkOk
1ftp.jaist.ac.jpL Thu Jan 19 20:48:45 UTC 2017   X: 4OkOk
1ftp.tsukuba.wide.ad.jpL Thu Jan 19 20:48:45 UTC 2017   .OkOk
1ftp.ca.debian.orgP Thu Jan 19 20:48:45 UTC 20177  X: 4OkX: 28
1mirror.one.comL Thu Jan 19 20:48:45 UTC 2017   X: 4OkOk
1debian.heanet.ieS Thu Jan 19 20:48:45 UTC 2017   X: 4OkOk
1alcateia.ufscar.brL Thu Jan 19 20:48:45 UTC 2017   .Ok.
1ftp.ie.debian.orgS Thu Jan 19 20:48:45 UTC 20177  X: 4OkOk
1debian.telecoms.bgL Thu Jan 19 20:48:45 UTC 2017   X: 4Ok.
1debian.org.uaS Thu Jan 19 20:48:45 UTC 20177  X: 4OkOk
1ftp.se.debian.orgP Thu Jan 19 20:48:45 UTC 20177  X: 4OkOk
1ftp.ua.debian.orgS Thu Jan 19 20:48:45 UTC 2017   X: 4OkOk
1debian.doratelekom.comL Thu Jan 19 20:48:45 UTC 20172,7 X.Ok.
1debian.proxad.netP Thu Jan 19 20:48:45 UTC 2017   X: 4OkOk
1ftp.us.debian.orgP Thu Jan 19 20:48:45 UTC 20177  X: 4OkX: 37
1mirror.mephi.ruP Thu Jan 19 20:48:45 UTC 2017   X: 4OkOk
1ftp.uk.debian.orgP Thu Jan 19 20:48:45 UTC 20177  X: 4OkOk
1debian.mirror.vu.ltS Thu Jan 19 20:48:45 UTC 2017   X: 4OkOk
1ftp.br.debian.orgP Thu Jan 19 20:48:45 UTC 20177  X: 4OkOk
1mirror2.corbina.ruL Thu Jan 19 20:48:45 UTC 20177  X: 4Ok.
1ftp.pl.debian.orgP Thu Jan 19 20:48:45 UTC 20177  X: 4OkOk
1rsync.osuosl.orgP Thu Jan 19 20:48:45 UTC 20172,7  ..Ok
2mirror.dkm.czL Thu Jan 19 14:56:13 UTC 2017   X: 4OkOk
2pubmirrors.dal.corespace.comL Thu Jan 19 14:56:13 UTC 2017   X: 4Ok.
2mirrors.pidginhost.comL Thu Jan 19 14:56:13 UTC 2017   X: 4OkX: 21
2ftp.icm.edu.plL Thu Jan 19 14:56:13 UTC 2017   X: 4OkOk
2ftp.cvut.czL Thu Jan 19 14:56:13 UTC 2017   X: 4Ok.
2mirror.t-home.mkL Thu Jan 19 14:56:13 UTC 2017   .Ok.
2debian.mirror.constant.comL Thu Jan 19 14:56:13 UTC 2017   .Ok.
2mirror.us.leaseweb.netL Thu Jan 19 14:56:13 UTC 2017   X: 4OkOk
2ftp.uni-mainz.deL Thu Jan 19 14:56:13 UTC 2017   X: 4Ok.
2debian.ipacct.comL Thu Jan 19 14:56:13 UTC 2017  XX: 4OkX: 64
2mirror.kku.ac.thS Thu Jan 19 14:56:13 UTC 2017   X: 4OkOk
2ftp.funet.fiL Thu Jan 19 14:56:13 UTC 2017   X: 4OkOk
2mirrors.advancedhosters.comL Thu Jan 19 14:56:13 UTC 2017   X: 4OkOk
2debian.superhosting.czL Thu Jan 19 14:56:13 UTC 2017   X: 4Ok.
2debian.mirrors.crysys.huL Thu Jan 19 14:56:13 UTC 20177  X: 4Ok.
2mirror.unitedcolo.deL Thu Jan 19 14:56:13 UTC 2017   X: 4OkOk
2mirror.aarnet.edu.auL Thu Jan 19 14:56:13 UTC 2017   X: 1.Ok
2mirror.sax.uk.as61049.netL Thu Jan 19 14:56:13 UTC 2017   X: 1OkOk
2debian.ues.edu.svL Thu Jan 19 14:56:13 UTC 2017   .Ok.
2merlin.fit.vutbr.czL Thu Jan 19 14:56:13 UTC 20173  .OkOk
2ftp.zcu.czL Thu Jan 19 14:56:13 UTC 2017   X: 4Ok.
2debian.mnet.bgL Thu Jan 19 14:56:13 UTC 2017  XX: 4Ok.
2mirrors.dcarsat.com.arL Thu Jan 19 14:56:13 UTC 2017   .Ok.
2mirrors-usa.go-parts.comL Thu Jan 19 14:56:13 UTC 2017   X: 51OkX: 52
2mirror.poliwangi.ac.idL Thu Jan 19 14:56:13 UTC 2017   .Ok.
2mirror.nexcess.netL Thu Jan 19 14:56:13 UTC 2017   X: 4Ok.
2debian.mirror.netelligent.caL Thu Jan 19 14:56:13 UTC 2017   X: 4OkOk
2mirror.sucs.swan.ac.ukL Thu Jan 19 14:56:13 UTC 2017   .Ok.
2repo.cure.edu.uyL Thu Jan 19 14:56:13 UTC 2017  X.Ok.
2debian.inhost.proL Thu Jan 19 14:56:13 UTC 2017   .Ok.
2debianmirror.nkn.inL Thu Jan 19 14:56:13 UTC 2017   .Ok.
2mirrors.netix.netL Thu Jan 19 14:56:13 UTC 2017   X: 4OkOk
2debian.bhs.mirrors.ovh.netL Thu Jan 19 14:56:13 UTC 2017   X: 4OkOk
2mirror.i3d.netL Thu Jan 19 14:56:13 UTC 20173  X: 4OkOk
2mirror.1000mbps.comL Thu Jan 19 14:56:13 UTC 20177  X: 9OkX: 57
2mirrors.telianet.dkL Thu Jan 19 14:56:13 UTC 2017   X: 4Ok.
2mirror.iranserver.comL Thu Jan 19 14:56:13 UTC 20177 X.Ok.
2mirror.mirohost.netL Thu Jan 19 14:56:13 UTC 2017   X: 4OkOk
2debian.uvigo.esL Thu Jan 19 14:56:13 UTC 2017   X: 4Ok.
2mirrors.lug.mtu.eduL Thu Jan 19 14:56:13 UTC 2017   X: 4OkOk
2debian.redimadrid.esL Thu Jan 19 14:56:13 UTC 2017   .Ok.
2debian.ignum.czL Thu Jan 19 14:56:13 UTC 2017   X: 4OkOk
2mirror.0x.sgP Thu Jan 19 14:56:13 UTC 2017   X: 4OkOk
2debian.csie.nctu.edu.twS Thu Jan 19 14:56:13 UTC 2017   X: 4OkOk
2debian.mirrors.ovh.netL Thu Jan 19 14:56:13 UTC 2017   X: 4Ok.
2mirrors.syringanetworks.netL Thu Jan 19 14:56:13 UTC 2017   X: 4OkOk
2debian.polytech-lille.frL Thu Jan 19 14:56:13 UTC 2017  XX: 4OkX: 91
2mirror.vorboss.netL Thu Jan 19 14:56:13 UTC 2017   .Ok.
2mirror.keystealth.orgL Thu Jan 19 14:56:13 UTC 2017   X: 4OkOk
2ftp.piotrkosoft.netL Thu Jan 19 14:56:13 UTC 2017   X: 4OkOk
2mirror.cs.uwm.eduL Thu Jan 19 14:56:13 UTC 2017   X: 4OkOk
2mirror.isoc.org.ilL Thu Jan 19 14:56:13 UTC 2017   .Ok.
2debian.netcologne.deL Thu Jan 19 14:56:13 UTC 2017   X: 4OkOk
2debian.cabletel.com.mkL Thu Jan 19 14:56:13 UTC 20177  .Ok.
2mirrors.ircam.frL Thu Jan 19 14:56:13 UTC 2017   X: 4Ok.
2mirror.sov.uk.goscomb.netL Thu Jan 19 14:56:13 UTC 2017   X: 4Ok.
2mirror.overthewire.com.auL Thu Jan 19 14:56:13 UTC 2017   X: 4Ok.
2mirror.cse.iitk.ac.inL Thu Jan 19 14:56:13 UTC 20172 XX: 4Ok.
2debmirror.tuxis.nlL Thu Jan 19 14:56:13 UTC 2017   .Ok.
2mirror.intergrid.com.auL Thu Jan 19 14:56:13 UTC 2017   .Ok.
2artfiles.orgL Thu Jan 19 14:56:13 UTC 2017   X: 4Ok.
2kebo.vlsm.orgL Thu Jan 19 14:56:13 UTC 20177  X: 4Ok.
2debian.mirror.net-d-sign.deL Thu Jan 19 14:56:13 UTC 2017   .Ok.
2mirror.ox.ac.ukL Thu Jan 19 14:56:13 UTC 2017   X: 4Ok.
2debian.cse.msu.eduP Thu Jan 19 14:56:13 UTC 2017  XX: 9OkX: 86
2ftp.citylink.co.nzP Thu Jan 19 14:56:13 UTC 20177  X: 4OkOk
2debian.mirror.iphh.netL Thu Jan 19 14:56:13 UTC 2017   X: 4Ok.
2ftp.udc.esL Thu Jan 19 14:56:13 UTC 20177  X: 4Ok.
2mirrors.linux.iu.eduL Thu Jan 19 14:56:13 UTC 2017   X: 4Ok.
2ftp.tu-graz.ac.atL Thu Jan 19 14:56:13 UTC 2017   X: 4Ok.
2mirror.proserve.nlL Thu Jan 19 14:56:13 UTC 2017   X: 4OkOk
2repository.linux.pfL Thu Jan 19 14:56:13 UTC 2017  XX: 4OkOk
2ftp.upcnet.roL Thu Jan 19 14:56:13 UTC 2017  XX: 4Ok.
2mirrors.163.comS Thu Jan 19 14:56:13 UTC 2017   .Ok.
2ftp.rezopole.netL Thu Jan 19 14:56:13 UTC 2017   X: 4Ok.
2debian.xtdv.netL Thu Jan 19 14:56:13 UTC 2017  X.Ok.
2ftp.sv.debian.orgP Thu Jan 19 14:56:13 UTC 20177 XX: 4OkX: 22
2debian.univ-reims.frL Thu Jan 19 14:56:13 UTC 2017   X: 4Ok.
2debian.mirror.root.luL Thu Jan 19 14:56:13 UTC 2017   X: 4OkX: 23
2ftp.cc.uoc.grL Thu Jan 19 14:56:13 UTC 20177  X: 4Ok.
2mirrors.noction.comL Thu Jan 19 14:56:13 UTC 2017   X: 4Ok.
2mirror.zol.co.zwL Thu Jan 19 14:56:13 UTC 20177 XX: 24X: 20Ok
2download.unesp.brL Thu Jan 19 14:56:13 UTC 20177  .Ok.
2ftp.man.poznan.plL Thu Jan 19 14:56:13 UTC 2017   X: 4Ok.
2mirror.satellite-service.ruL Thu Jan 19 14:56:13 UTC 2017   X: 4Ok.
2pkg.adfinis-sygroup.chL Thu Jan 19 14:56:13 UTC 2017   .Ok.
2deb.vanvps.comL Thu Jan 19 14:56:13 UTC 2017   .Ok.
2mirrors.evowise.comL Thu Jan 19 14:56:13 UTC 2017   .Ok.
2mirror.cogentco.comL Thu Jan 19 14:56:13 UTC 20172  X: 4OkOk
2deb-mir1.naitways.netS Thu Jan 19 14:56:13 UTC 2017   .Ok.
2mirrors.gigenet.comL Thu Jan 19 14:56:13 UTC 2017   .Ok.
2ftp.hosteurope.deL Thu Jan 19 14:56:13 UTC 2017   X: 4OkOk
2ftp.nara.wide.ad.jpS Thu Jan 19 14:56:13 UTC 2017  XX: 4OkOk
2debian.mirror.gtcomm.netL Thu Jan 19 14:56:13 UTC 20177  X: 4Ok.
2debian.mirror.digitalpacific.com.auL Thu Jan 19 14:56:13 UTC 2017  X.OkOk
2ftp.utexas.eduL Thu Jan 19 14:56:13 UTC 2017   .OkOk
2ftp.mx.debian.orgP Thu Jan 19 14:56:13 UTC 20177  X: 4OkOk
2mmc.geofisica.unam.mxP Thu Jan 19 14:56:13 UTC 2017   X: 4OkOk
2mirrors.rackhosting.comL Thu Jan 19 14:56:13 UTC 2017   X: 4OkX: 7
2ftp.debian.skP Thu Jan 19 14:56:13 UTC 2017  XX: 4OkOk
2debian.koyanet.lvL Thu Jan 19 14:56:13 UTC 2017  XX: 4OkOk
2ftp.plusline.deL Thu Jan 19 14:56:13 UTC 20177  X: 4OkOk
2ftp.nz.debian.orgP Thu Jan 19 14:56:13 UTC 20172 XX: 4OkOk
2debian.volia.netS Thu Jan 19 14:56:13 UTC 2017   X: 4OkX: 8
2ftp.ee.debian.orgP Thu Jan 19 14:56:13 UTC 20177  X: 4OkOk
2mirror.mythic-beasts.comL Thu Jan 19 14:56:13 UTC 2017   .Ok.
2debian.iskon.hrL Thu Jan 19 14:56:13 UTC 2017  XX: 1Ok.
2ftp.pt.debian.orgP Thu Jan 19 14:56:13 UTC 2017  XX: 4OkOk
2mirrors.ucr.ac.crL Thu Jan 19 14:56:13 UTC 2017   X: 4OkOk
2debian.inode.atL Thu Jan 19 14:56:13 UTC 2017   X: 4OkOk
2ftp.iut-bm.univ-fcomte.frL Thu Jan 19 14:56:13 UTC 2017   X: 4OkOk
2ftp.rnl.tecnico.ulisboa.ptL Thu Jan 19 14:56:13 UTC 2017   X: 4OkOk
2debian.securedservers.comL Thu Jan 19 14:56:13 UTC 2017   .Ok.
2debian.parspack.comL Thu Jan 19 14:56:13 UTC 2017   X: 4Ok.
2ftp.litnet.ltS Thu Jan 19 14:56:13 UTC 20177  X: 4OkOk
2debian.intergenia.deL Thu Jan 19 14:56:13 UTC 2017   .OkOk
2mirrors.namecheap.comL Thu Jan 19 14:56:13 UTC 2017   X: 4OkOk
2debian.uniminuto.eduL Thu Jan 19 14:56:13 UTC 2017   .OkOk
2ftp.fau.deL Thu Jan 19 14:56:13 UTC 2017   X: 4OkOk
2mirror.rit.eduL Thu Jan 19 14:56:13 UTC 20172,7  X: 4OkOk
2mirror.dataone.nlL Thu Jan 19 14:56:13 UTC 20173 XX: 4OkOk
2ftp.sg.debian.org? Thu Jan 19 14:56:13 UTC 20177  X: 4OkOk
2debian.mirrors.easynet.frL Thu Jan 19 14:56:13 UTC 2017   X: 4Ok.
2mirror.neolabs.kzL Thu Jan 19 14:56:13 UTC 2017   X: 4OkOk
2mirror.nl.leaseweb.netS Thu Jan 19 14:56:13 UTC 2017   X: 4OkOk
2mirror.akl.tmnetwork.co.nzL Thu Jan 19 14:56:13 UTC 20172 X.OkX: 44
2mirror.de.leaseweb.netS Thu Jan 19 14:56:13 UTC 2017   X: 4OkOk
2debian.insacom.clL Thu Jan 19 14:56:13 UTC 2017   X: 1OkX: 45
2debian.mirror.web4u.czL Thu Jan 19 14:56:13 UTC 2017   X: 4Ok.
2pubmirror.plutex.deL Thu Jan 19 14:56:13 UTC 2017   X: 4Ok.
2ftp.bme.huL Thu Jan 19 14:56:13 UTC 2017   X: 4Ok.
2ftp.ec-m.frS Thu Jan 19 14:56:13 UTC 2017   X: 4Ok.
2opensource.nchc.org.twL Thu Jan 19 14:56:13 UTC 20177  X: 15Ok.
2mirror.steadfast.netL Thu Jan 19 14:56:13 UTC 2017   .Ok.
2ftp.tu-clausthal.deL Thu Jan 19 14:56:13 UTC 20177  X: 4Ok.
2debian.otenet.grL Thu Jan 19 14:56:13 UTC 2017   X: 4Ok.
2debian.cc.lehigh.eduS Thu Jan 19 14:56:13 UTC 2017   .OkOk
2ftp-stud.hs-esslingen.deL Thu Jan 19 14:56:13 UTC 2017   X: 4OkX: 48
2mirror.applebred.netL Thu Jan 19 14:56:13 UTC 2017  XX: 4OkOk
2ftp.debianclub.orgL Thu Jan 19 14:56:13 UTC 2017   X: 4Ok.
2debian.cites.illinois.eduL Thu Jan 19 14:56:13 UTC 20172,7  X: 4Ok.
2mirrors.apu.edu.myL Thu Jan 19 14:56:13 UTC 2017  XX: 4Ok.
2debian.mirror.linux.roL Thu Jan 19 14:56:13 UTC 2017   .Ok.
2debian.salud.gob.svS Thu Jan 19 14:56:13 UTC 2017  XX: 4OkX: 30
2mirror.cc.columbia.eduS Thu Jan 19 14:56:13 UTC 2017   X: 4OkOk
2debian.mirror.uk.sargasso.netL Thu Jan 19 14:56:13 UTC 2017   .Ok.
2ftp.sh.cvut.czL Thu Jan 19 14:56:13 UTC 2017   X: 4Ok.
2miroir.vbrunet.euL Thu Jan 19 14:56:13 UTC 20173  X: 4Ok.
2ftp.u-picardie.frS Thu Jan 19 14:56:13 UTC 2017  XX: 4Ok.
2debian.mirror.lhisp.comL Thu Jan 19 14:56:13 UTC 2017  X.OkX: 38
2debian.cs.binghamton.eduL Thu Jan 19 14:56:13 UTC 2017   X: 9OkX: 39
2ftp.informatik.rwth-aachen.deL Thu Jan 19 14:56:13 UTC 2017   X: 4Ok.
2ftp.stw-bonn.deL Thu Jan 19 14:56:13 UTC 2017   X: 4Ok.
3mirror.hmc.eduS Thu Jan 19 08:49:12 UTC 2017   .Ok.
3ftp.th.debian.orgL Thu Jan 19 08:49:12 UTC 2017  XX: 4OkOk
3debian.saix.netL Thu Jan 19 08:49:12 UTC 2017   X: 4Ok.
3debian.ec.as6453.netL Thu Jan 19 08:49:12 UTC 20172 XX: 4Ok.
3debian.tu-bs.deS Thu Jan 19 08:49:12 UTC 20177  X: 9OkOk
3debian.unal.edu.coL Thu Jan 19 08:49:12 UTC 20172 XX: 4OkX: 87
3debian.mirror.serversaustralia.com.auL Thu Jan 19 08:49:12 UTC 2017  X.Ok.
3mirrors.liquidweb.comL Thu Jan 19 08:49:12 UTC 2017   .OkOk
3suro.ubaya.ac.idS Thu Jan 19 08:49:12 UTC 2017  X.OkOk
3mirrors.tecnoera.comL Thu Jan 19 08:49:12 UTC 2017  X.Ok.
3ftp.monash.edu.auL Thu Jan 19 08:49:12 UTC 2017   X: 4OkOk
3ftp.lip6.frL Thu Jan 19 08:49:12 UTC 2017   X: 4Ok.
3ftp.u-strasbg.frS Thu Jan 19 08:49:12 UTC 2017   X: 4Ok.
3debian.grn.catL Thu Jan 19 08:49:12 UTC 2017  XX: 4Ok.
3debian.mirror.frontiernet.netL Thu Jan 19 08:49:12 UTC 20177  X: 4OkOk
3mirror.wlg.tmnetwork.co.nzL Thu Jan 19 08:49:12 UTC 20177 X.OkX: 27
3debian.redparra.comL Thu Jan 19 08:49:12 UTC 2017   .Ok.
3ftp.belnet.beS Thu Jan 19 08:49:12 UTC 2017   X: 4OkOk
3debian.lagis.atS Thu Jan 19 08:49:12 UTC 2017   X: 15Ok.
3kartolo.sby.datautama.net.idL Thu Jan 19 08:49:12 UTC 20172 X.OkOk
3giano.com.dist.unige.itL Thu Jan 19 08:49:12 UTC 2017   X: 4Ok.
3ftp.proxad.netL Thu Jan 19 08:49:12 UTC 20177 XX: 4Ok.
3mi.mirror.garr.itL Thu Jan 19 08:49:12 UTC 2017   X: 4OkOk
3debian.telsatbb.vuL Thu Jan 19 08:49:12 UTC 2017  XX: 4Ok.
3mirror.cse.unsw.edu.auL Thu Jan 19 08:49:12 UTC 20177  X: 15Ok.
3download.xs4all.nlL Thu Jan 19 08:49:12 UTC 2017   X: 4Ok.
3mirrors.xservers.roL Thu Jan 19 08:49:12 UTC 20177  X: 9OkX: 40
4debian.mirror.ac.zaL Thu Jan 19 02:47:15 UTC 20177  X: 24OkX: 60
4mirror.units.itL Thu Jan 19 02:47:15 UTC 20172  .Ok.
4debian.man.ac.ukL Thu Jan 19 02:47:15 UTC 2017   .Ok.
4linorg.usp.brL Thu Jan 19 02:47:15 UTC 2017   X: 4Ok.
4ftp.riken.jpL Thu Jan 19 02:47:15 UTC 2017   X: 4OkOk
4mirror.usertrust.infoL Thu Jan 19 02:47:15 UTC 20172  .Ok.
4debian.mirror.ac.keL Thu Jan 19 02:47:15 UTC 2017   X: 4Ok.
4debian.ens-cachan.frL Thu Jan 19 02:47:15 UTC 20173,7  X: 4Ok.
4debian.mirror.cambrium.nlL Thu Jan 19 02:47:15 UTC 2017   X: 24OkX: 94
4mirror.debian.ikoula.comL Thu Jan 19 02:47:15 UTC 20177  X: 4OkX: 95
4freedom.dicea.unifi.itL Thu Jan 19 02:47:15 UTC 20172 XX: 4Ok.
4mirror.pregi.netL Thu Jan 19 02:47:15 UTC 2017   X: 4Ok.
4debian.csie.ntu.edu.twL Thu Jan 19 02:47:15 UTC 2017  XX: 4Ok.
4debian.uni-duisburg-essen.deL Thu Jan 19 02:47:15 UTC 2017   X: 4Ok.
4rsync.uni-bayreuth.deL Thu Jan 19 02:47:15 UTC 20173,7  ..Ok
4ftp.fi.debian.orgP Thu Jan 19 02:47:15 UTC 20172,7 XX: 4OkOk
4webb.ens-cachan.frL Thu Jan 19 02:47:15 UTC 20173  X: 4Ok.
4ftp.uni-bayreuth.deL Thu Jan 19 02:47:15 UTC 20173  X: 4Ok.
4ftp.nluug.nlL Thu Jan 19 02:47:15 UTC 20177  X: 4Ok.
4ftp.surfnet.nlL Thu Jan 19 02:47:15 UTC 20177  X: 4Ok.
4mirrors.modwest.comL Thu Jan 19 02:47:15 UTC 2017   .Ok.
5ftp.caliu.catL Wed Jan 18 20:46:22 UTC 2017   X: 9X: 20.
5debian.ludost.netS Wed Jan 18 20:46:22 UTC 2017   X: 4Ok.
5ftp.cica.esL Wed Jan 18 20:46:22 UTC 2017   X: 4OkOk
5ftp.metu.edu.trL Wed Jan 18 20:46:22 UTC 20177  X: 4OkX: 53
5mirrors.asnet.amL Wed Jan 18 20:46:22 UTC 2017   .Ok.
5ftp.crihan.frL Wed Jan 18 20:46:22 UTC 2017   X: 4OkOk
5debian.fastbull.orgL Wed Jan 18 20:46:22 UTC 2017   X: 4Ok.
5debian.revolsys.frL Wed Jan 18 20:46:22 UTC 2017   X: 84Ok.
5debian.dynamica.itL Wed Jan 18 20:46:22 UTC 2017   X: 4Ok.
5ftp.lug.roL Wed Jan 18 20:46:22 UTC 2017   X: 4Ok.
5ftp.psn.ruL Wed Jan 18 20:46:22 UTC 20177  X: 4OkOk
5ftp.kfki.huL Wed Jan 18 20:46:22 UTC 20177  X: 4OkX: 19
5ftp.seclan.comL Wed Jan 18 20:46:22 UTC 20177  X: 4Ok.
5mirror.pmf.kg.ac.rsL Wed Jan 18 20:46:22 UTC 20172 XX: 4Ok.
5ftp.univ-pau.frL Wed Jan 18 20:46:22 UTC 2017   X: 4Ok.
5debian.co.ilL Wed Jan 18 20:46:22 UTC 2017   .Ok.
5ftp.antik.skL Wed Jan 18 20:46:22 UTC 20177  X: 4OkOk
6mirrors.tuna.tsinghua.edu.cnP Wed Jan 18 14:48:31 UTC 2017  XX: 1OkOk
6ftp2.cn.debian.org? Wed Jan 18 14:48:31 UTC 20177 XX: 1OkOk
6mirrors.xjtu.edu.cnL Wed Jan 18 14:48:31 UTC 20177 X.Ok.
7ukdebian.mirror.anlx.netP Wed Jan 18 08:46:56 UTC 2017  XX: 4OkOk
8ftp.freenet.deL Tue Jan 17 14:58:31 UTC 2017   X: 4Ok.
9debian.asis.io? Tue Jan 17 08:48:53 UTC 20172 XX: 4OkOk
9ftp.gtlib.gatech.eduL Tue Jan 17 08:48:53 UTC 20172,7  X: 4OkOk
10debian.nautile.ncS Tue Jan 17 02:47:08 UTC 20172  X: 4OkOk
10ftp.nc.debian.orgS Tue Jan 17 02:47:08 UTC 20172,7  X: 4OkOk
11mirror.unej.ac.idS Mon Jan 16 14:48:09 UTC 20177  X: 65OkX: 66
11mirror.rise.phL Mon Jan 16 14:48:09 UTC 2017  XX: 4Ok.
11kambing.ui.ac.id? Mon Jan 16 14:48:09 UTC 2017   X: 4Ok.
12debian.nsu.ruL Mon Jan 16 03:07:56 UTC 2017   X: 4Ok.
13ftp.arnes.siL Sat Jan 14 21:06:02 UTC 2017   X: 4Ok.
13debs.pelotas.ifsul.edu.brS Sat Jan 14 21:06:02 UTC 2017  XX: 4Ok.
14ftp.iitm.ac.inL Tue Jan 10 02:57:47 UTC 2017  XX: 4OkX: 76
15debian.nctu.edu.twS Thu Jan 5 02:58:24 UTC 2017  XX: 4OkOk
16debian.bjtu.edu.cnL Wed Jan 4 20:58:26 UTC 20172,7  X: 9OkX: 83
17ftp.lanet.krS Fri Dec 30 15:02:26 UTC 2016   X: 4OkOk
18mirror.dhakacom.comL Tue Dec 27 08:53:35 UTC 2016   X: 1OkOk
19mirror.cpsc.ucalgary.caL Wed Dec 21 20:54:54 UTC 20167  X: 9OkX: 26
20noodle.portalus.netS Tue Nov 8 02:55:57 UTC 2016  XX: 4X: 63Ok
20debian.lagoon.ncL Tue Nov 8 02:55:57 UTC 2016  XX: 4OkOk
21mirrors.eastera.tjL Mon Nov 7 15:04:27 UTC 20162,7  .Ok.
22mirror.ancl.hawaii.eduS Mon Oct 31 15:11:22 UTC 2016   X: 4OkOk
23ftp.pwr.wroc.plL Fri Sep 23 16:06:23 UTC 20167 XX: 4Ok.
24ftp.uni-koeln.deL Tue Sep 6 09:47:01 UTC 20162 XX: 4Ok.
25debian.dcc.fc.up.ptL Fri Sep 2 22:04:53 UTC 2016  X.Ok.
26mirrors.sohu.comL Tue Aug 30 22:04:52 UTC 20162 XX: 4OkX: 12
27debian.mirror.tnL Sun Feb 14 03:44:45 UTC 20167  .Ok.
28ftp.neowiz.comL Wed Feb 10 03:44:29 UTC 20162 XX: 4OkOk
29mirror.fdcservers.netL Sun Jan 31 21:27:55 UTC 20163 XX: 4Ok.
30debian.stream.uzL Mon Jun 8 21:56:17 UTC 2015   X: 4Ok.
31mirror.ibcp.frL Fri Jan 9 09:07:07 UTC 2015   .Ok.
32debian.mirrors.easynews.comL Wed Apr 23 09:12:55 UTC 20145,7  .OkOk
33ftp.debian.org.hkL Sun Apr 20 21:10:35 UTC 20142 XX: 4OkOk
33mirror.plusserver.comL N/A--  .X: 20.
33deb-mirror.deL N/A--  X: 9X: 61X: 62
33gd.tuwien.ac.atL N/A--  .X: 67.
33debian.las.ic.unicamp.brS N/A--  X: 69X: 70X: 71
33ftp.man.szczecin.plL N/A--  X: 4..
33ftp.iinet.net.auL N/A--  X: 4X: 72.
33ftp3.nrc.caP N/A--  X: 9X: 74X: 75
33ftp.cesca.catL N/A--  X: 4..
33ftp.univ-nantes.frS N/A--  X: 4..
33debian.skarta.netL N/A--  .X: 49X: 50
33ftp.informatik.hu-berlin.deL N/A--  X: 4..
33ftp.linux.itS N/A--  X: 9X: 55X: 56
33debian.advalem.netS N/A--  X: 15X: 47X: 58
33debian.uni.edu.niL N/A--  .X: 59.
33glua.ua.ptL N/A--  X: 88X: 20.
33ftp.ds.karen.hj.seL N/A--  X: 15X: 20.
33reflector.westga.eduL N/A--  .X: 20X: 96
33mirrors.cug.edu.cnL N/A--  .X: 80X: 62
33mirrors.e2wsolutions.comL N/A--  .X: 81.
33ftp-mirror.internap.comL N/A--  X: 9X: 82.
33mirror.as24220.netL N/A--  X: 4X: 17X: 18
33mirror.thelinuxfix.comL N/A--  X: 15X: 20X: 21
33ftp.mpi-sb.mpg.deL N/A--  X: 4..
33mirrors.tummy.comL N/A--  X: 15X: 20.
33mirrors.hust.edu.cnL N/A--  .X: 20X: 25
33mirrors.ispros.com.bdL N/A--  X: 1X: 2X: 3
33debian.mirror.utn.edu.arL N/A--  .X: 5.
33dennou-h.gfd-dennou.orgS N/A--  X: 4X: 6.
33mirrors-uk.go-parts.comL N/A--  X: 9X: 10X: 11
33ftp.tiscali.nlL N/A--  X: 9X: 13X: 14
33ftp.fu-berlin.deL N/A--  X: 4..
33ftp.tu-chemnitz.deL N/A--  X: 4X: 43.
33ftp.nerim.netS N/A--  X: 4X: 46.
33ftp.eq.uc.ptL N/A--  X: 4X: 47.
33mirrors-ru.go-parts.comL N/A--  X: 9X: 10X: 29
33mirrors.acm.jhu.eduL N/A--  .X: 31.
33ftp-master.debian.org? N/A--  ..X: 16
33debian.csg.uzh.chL N/A--  X: 4X: 32.
33buaya.klas.or.idL N/A--  X: 1X: 35X: 36
33mirrors.centarra.comL N/A--  .X: 33X: 34
33ftp.roedu.netL N/A--  X: 9X: 41X: 42

 

HostMasterPrimarySecondary/LeafLeaf...
mirrors.fe.up.pt 408-ftp-master.debian.org mirrors.fe.up.pt syncproxy2.eu.debian.org ftp.nl.debian.org mirrors.fe.up.pt
mirror.overthewire.com.au mirror.overthewire.com.au syncproxy2.wna.debian.org syncproxy.au.debian.org mirror.waia.asn.au mirror.overthewire.com.au
debian.stream.uz 2-klecker.debian.org ftp.nl.debian.org debian.stream.uz
mirror.ibcp.fr syncproxy.eu.debian.org debian.proxad.net mirror.ibcp.fr
mirror.it.ubc.ca 69-syncproxy2.wna.debian.org gretchaninov.debian.org mirror.it.ubc.ca
debian.mirror.iweb.ca debian.mirror.iweb.ca
mirrors.ustc.edu.cn 3-mirrors.ustc.edu.cn
ftp.ca.debian.org ftp.ca.debian.org
mirror.rise.ph 9-ftp.kr.debian.org mirror.rise.ph
ftp.lanet.kr ftp.lanet.kr
ftp.sg.debian.org 2-mirror.0x.sg ftp.sg.debian.org
mirror.0x.sg <-----
mirror.unej.ac.id 2-kambing.ui.ac.id mirror.unej.ac.id
kambing.ui.ac.id <-----
mirror.poliwangi.ac.id mirror.poliwangi.ac.id
debian.lagoon.nc ftp.th.debian.org debian.lagoon.nc
ftp.kr.debian.org <-----
deb.vanvps.com 24-mirrors.kernel.org deb.vanvps.com
mirrors.modwest.com mirrors.modwest.com
mirrors.tecnoera.com mirrors.tecnoera.com
mirror.math.princeton.edu mirror.math.princeton.edu
mirror.keystealth.org mirror.keystealth.org
mirror.nexcess.net mirror.nexcess.net
mirrors.ocf.berkeley.edu mirrors.ocf.berkeley.edu
debian.cites.illinois.edu 2-mirror.cs.uwm.edu debian.cites.illinois.edu
mirror.cs.uwm.edu <-----
mirrors.ucr.ac.cr 2-mirrors.namecheap.com mirrors.ucr.ac.cr
mirrors.namecheap.com <-----
mirrors.apu.edu.my mirrors.apu.edu.my
mirror.cogentco.com mirror.cogentco.com
mirrors.163.com mirrors.163.com
debian.securedservers.com debian.securedservers.com
debian.bhs.mirrors.ovh.net debian.bhs.mirrors.ovh.net
debian.insacom.cl debian.insacom.cl
debian.xtdv.net debian.xtdv.net
ftp.iitm.ac.in ftp.iitm.ac.in
mirrors.kernel.org <-----
mirrors.kernel.org <-----
mirrors.kernel.org <-----
mirrors.kernel.org <-----
mirrors.kernel.org <-----
ftp.cn.debian.org ftp.cn.debian.org
shadow.ind.ntou.edu.tw 9-ftp.tw.debian.org shadow.ind.ntou.edu.tw
ftp.tku.edu.tw ftp.tku.edu.tw
suro.ubaya.ac.id 2-ftp.th.debian.org suro.ubaya.ac.id
ftp.th.debian.org <-----
mirror.applebred.net mirror.applebred.net
ftp.debianclub.org 2-mirror.kku.ac.th ftp.debianclub.org
mirror.kku.ac.th <-----
debian.telsatbb.vu debian.telsatbb.vu
ftp.tw.debian.org <-----
dennou-q.gfd-dennou.org 8-air.hanzubon.jp 7-dennou-h.gfd-dennou.org 7-ftp.jp.debian.org 7-hanzubon.jp dennou-q.gfd-dennou.org
dennou-k.gfd-dennou.org dennou-k.gfd-dennou.org
ftp.jp.debian.org 3-ftp.jaist.ac.jp ftp.jp.debian.org
debian.nctu.edu.tw debian.nctu.edu.tw
ftp.jaist.ac.jp <-----
ftp.tsukuba.wide.ad.jp ftp.tsukuba.wide.ad.jp
debian-mirror.sakura.ne.jp debian-mirror.sakura.ne.jp
ftp.nara.wide.ad.jp ftp.jp.debian.org hanzubon.jp dennou-h.gfd-dennou.org ftp.nara.wide.ad.jp
mirror.linux.org.au 12-syncproxy.au.debian.org mirror.linux.org.au
ftp.monash.edu.au 9-mirror.waia.asn.au ftp.monash.edu.au
debian.mirror.serversaustralia.com.au debian.mirror.serversaustralia.com.au
mirror.crucial.com.au 5-debian.mirror.digitalpacific.com.au mirror.crucial.com.au
ftp.citylink.co.nz ftp.citylink.co.nz
mirror.akl.tmnetwork.co.nz mirror.akl.tmnetwork.co.nz
debian.mirror.digitalpacific.com.au <-----
debian.mirror.digitalpacific.com.au <-----
mirror.intergrid.com.au mirror.intergrid.com.au
mirror.waia.asn.au <-----
mirror.wlg.tmnetwork.co.nz ftp.nz.debian.org mirror.waia.asn.au debian.mirror.digitalpacific.com.au mirror.akl.tmnetwork.co.nz mirror.wlg.tmnetwork.co.nz
ftp.au.debian.org ftp.au.debian.org
debian.mirrors.easynews.com debian.mirrors.easynews.com
ftp.antik.sk 28-syncproxy3.eu.debian.org 3-ftp.debian.sk ftp.antik.sk
ftp.sk.debian.org ftp.sk.debian.org
ftp.debian.sk <-----
debian.mirror.ac.za mirror.bytemark.co.uk mirrors.uk2.net debian.mirror.ac.za
mirror.zol.co.zw 23-free.hands.com 2-mirror.liquidtelecom.com mirror.zol.co.zw
mirror.liquidtelecom.com <-----
ftp.belnet.be ftp.belnet.be
debian.saix.net debian.saix.net
mirror.lchost.net mirror.lchost.net
ftp.uk.debian.org ftp.uk.debian.org
mirror.sov.uk.goscomb.net mirror.sov.uk.goscomb.net
mirrors.melbourne.co.uk mirrors.melbourne.co.uk
ftp.is.co.za ftp.is.co.za
the.earth.li the.earth.li
ftp.ticklers.org ftp.ticklers.org
mirror.vorboss.net mirror.vorboss.net
mirror.sucs.swan.ac.uk mirror.sucs.swan.ac.uk
mirror.ox.ac.uk mirror.ox.ac.uk
ftp.rnl.tecnico.ulisboa.pt ftp.rnl.tecnico.ulisboa.pt
mirrors.ircam.fr mirrors.ircam.fr
mirror.positive-internet.com mirror.positive-internet.com
debian.man.ac.uk debian.man.ac.uk
debian.mirror.uk.sargasso.net debian.mirror.uk.sargasso.net
free.hands.com <-----
free.hands.com <-----
free.hands.com <-----
free.hands.com <-----
syncproxy3.eu.debian.org <-----
ftp.nc.debian.org 244-syncproxy2.eu.debian.org ftp.nc.debian.org
debian.bsnet.se 9-ftp.acc.umu.se debian.bsnet.se
ftp.dk.debian.org ftp.dk.debian.org
debian.lth.se debian.lth.se
ftp.debian.chuvsu.ru ftp.debian.chuvsu.ru
ftp.availo.se ftp.availo.se
ftp.no.debian.org 2-ftp.uio.no ftp.no.debian.org
ftp.uio.no <-----
mirrors.telianet.dk mirrors.telianet.dk
ftp.acc.umu.se <-----
debian.spnet.net debian.mobiltel.bg ftp.de.debian.org debian.spnet.net
ftp.is.debian.org 2-debian.simnet.is ftp.is.debian.org
debian.simnet.is <-----
mirrors.xservers.ro 5-ftp.upcnet.ro mirrors.xservers.ro
ftp.ro.debian.org ftp.ro.debian.org
mirrors.pidginhost.com mirrors.pidginhost.com
mirrors.evowise.com mirrors.evowise.com
ftp.upcnet.ro <-----
ftp.ccc.uba.ar 11-debian.c3sl.ufpr.br ftp.ccc.uba.ar
linorg.usp.br linorg.usp.br
debian.pop-sc.rnp.br debian.pop-sc.rnp.br
debian.mirror.tn debian.las.ic.unicamp.br ubuntu.mirror.tn debian.mirror.tn
repo.cure.edu.uy repo.cure.edu.uy
download.unesp.br mirror.unesp.br download.unesp.br
sft.if.usp.br sft.if.usp.br
debs.pelotas.ifsul.edu.br debs.pelotas.ifsul.edu.br
alcateia.ufscar.br alcateia.ufscar.br
ftp.br.debian.org ftp.br.debian.org
debian.c3sl.ufpr.br <-----
ftp2.fr.debian.org ftp2.fr.debian.org
mirror.iway.ch 12-debian.ethz.ch mirror.iway.ch
ftp.arnes.si ftp.arnes.si
mirror.sinavps.ch mirror.sinavps.ch
mirrors.asnet.am mirrors.asnet.am
ftp.it.debian.org ftp.it.debian.org
ftp.uni-stuttgart.de ftp.uni-stuttgart.de
debian.fastweb.it debian.fastweb.it
pkg.adfinis-sygroup.ch pkg.adfinis-sygroup.ch
mirror.switch.ch mirror.switch.ch
debian.dynamica.it debian.dynamica.it
debian.ethz.ch <-----
debian.ethz.ch <-----
debian.linux.edu.lv debian.linux.edu.lv
ftp.ch.debian.org ftp.ch.debian.org
debian.mirror.iphh.net 61-ftp.de.debian.org debian.mirror.iphh.net
mi.mirror.garr.it mi.mirror.garr.it
debian.co.il debian.co.il
mirror.satellite-service.ru mirror.satellite-service.ru
debian.uni-duisburg-essen.de debian.uni-duisburg-essen.de
giano.com.dist.unige.it giano.com.dist.unige.it
mirror2.corbina.ru 2-ftp.corbina.net mirror2.corbina.ru
ftp.corbina.net <-----
debian.org.ua 3-ftp.ua.debian.org debian.org.ua
ftp2.debian.org.ua ftp2.debian.org.ua
ftp.ua.debian.org <-----
debian.polytech-lille.fr debian.polytech-lille.fr
ftp.caliu.cat ftp.caliu.cat README.CD-manufacture ftp.caliu.cat
rsync.uni-bayreuth.de rsync.uni-bayreuth.de
mirrors.noction.com mirrors.noction.com
debian.ens-cachan.fr debian.ens-cachan.fr
ftp.informatik.rwth-aachen.de ftp.informatik.rwth-aachen.de
ftp.uni-kl.de ftp.uni-kl.de
ftp.hosteurope.de ftp.hosteurope.de
debian.nsu.ru debian.nsu.ru
mirror.isoc.org.il mirror.isoc.org.il
ftp.psn.ru ftp.psn.ru
debian.intergenia.de debian.intergenia.de
mirrors.netix.net mirrors.netix.net
debian.mirror.vu.lt debian.mirror.vu.lt
ftp5.gwdg.de ftp5.gwdg.de
debian.mirror.lhisp.com debian.mirror.lhisp.com
ftp-stud.hs-esslingen.de ftp-stud.hs-esslingen.de
mirrors.rackhosting.com mirrors.rackhosting.com
debian.uvigo.es debian.uvigo.es
debian.cabletel.com.mk 2-ftp.fsn.hu debian.blizoo.mk debian.cabletel.com.mk
ftp.fsn.hu <-----
debian.tu-bs.de debian.ext.rz.tu-bs.de debian.tu-bs.de
debian.mnet.bg debian.mnet.bg
ftp.lt.debian.org ftp.lt.debian.org
debian.fastbull.org debian.fastbull.org
ftp.icm.edu.pl ftp.icm.edu.pl
ftp.cica.es ftp.cica.es
ftp.freenet.de ftp.freenet.de
ftp.fau.de ftp.fau.de
mirror.unitedcolo.de mirror.unitedcolo.de
pubmirror.plutex.de pubmirror.plutex.de
ftp.ec-m.fr ftp.ec-m.fr
ftp.metu.edu.tr ftp.metu.edu.tr
debian.mirror.root.lu debian.mirror.root.lu
mirror.mythic-beasts.com mirror.mythic-beasts.com
debian.bononia.it debian.bononia.it
ftp.bg.debian.org 2-ftp.uni-sofia.bg ftp.bg.debian.org
ftp.uni-sofia.bg <-----
debian.ipacct.com debian.ipacct.com
debian.redimadrid.es debian.redimadrid.es
ftp.kfki.hu ftp.kfki.hu
ftp.uni-mainz.de ftp.uni-mainz.de
ftp.hu.debian.org ftp.hu.debian.org
debian.mirror.linux.ro debian.mirror.linux.ro
ftp.crihan.fr ftp.crihan.fr
ftp.de.debian.org <-----
ftp.de.debian.org <-----
ftp.de.debian.org <-----
ftp.de.debian.org <-----
ftp.de.debian.org <-----
ftp.md.debian.org ftp.md.debian.org
debian.mirror.net-d-sign.de 2-mirror.1und1.de debian.mirror.net-d-sign.de
mirror.1und1.de <-----
debian.carnet.hr debian.carnet.hr
artfiles.org 14-ftp.halifax.rwth-aachen.de artfiles.org
ftp.bme.hu ftp.bme.hu
debian.telecoms.bg debian.telecoms.bg
ftp2.de.debian.org ftp2.de.debian.org
noodle.portalus.net noodle.portalus.net
mirror.mirohost.net mirror.mirohost.net
mirror.t-home.mk mirror.t-home.mk
debian.parspack.com debian.parspack.com
ftp.stw-bonn.de ftp.stw-bonn.de
debian.netcologne.de debian.netcologne.de
debian.uniminuto.edu debian.uniminuto.edu
ftp.plusline.de ftp2.plusline.de ftp.plusline.de
ftp.tu-clausthal.de ftp.tu-clausthal.de
ftp.halifax.rwth-aachen.de <-----
ftp.surfnet.nl 29-ftp.nl.debian.org ftp.surfnet.nl
mirror.easyspeedy.com 2-mirror.one.com mirror.easyspeedy.com
mirror.one.com <-----
mirrors.liquidweb.com 4-mirror.nl.leaseweb.net mirror.us.leaseweb.net mirrors.liquidweb.com
mirror.de.leaseweb.net mirror.de.leaseweb.net
mirror.1000mbps.com mirror.1000mbps.com
mirror.nl.leaseweb.net <-----
ftp.nluug.nl ftp.nluug.nl
debmirror.tuxis.nl debmirror.tuxis.nl
download.xs4all.nl ftp.debian.nl download.xs4all.nl
debian.balt.net debian.balt.net
mirror.us.leaseweb.net 2-mirror.us.leaseweb.net 2-mirror.nl.leaseweb.net mirror.us.leaseweb.net
debian.csie.nctu.edu.tw debian.csie.nctu.edu.tw
debian.grn.cat debian.grn.cat
softlibre.unizar.es 3-ulises.hostalia.com softlibre.unizar.es
ftp.es.debian.org ftp.es.debian.org
ulises.hostalia.com <-----
debian.gnu.gen.tr debian.gnu.gen.tr
mirror.proserve.nl mirror.proserve.nl
ftp.be.debian.org 2-mirror.as35701.net ftp.be.debian.org
mirror.as35701.net <-----
mirror.datacenter.by ftp.by.debian.org mirror.datacenter.by
debian.mirror.cambrium.nl debian.mirror.cambrium.nl
mirrors.eastera.tj mirror.yandex.ru mirrors.eastera.tj
ftp.nl.debian.org <-----
ftp.nl.debian.org <-----
ftp.nl.debian.org <-----
ftp.nl.debian.org <-----
ftp.nl.debian.org <-----
ftp.se.debian.org ftp.se.debian.org
mirror.atomki.mta.hu 75-syncproxy.eu.debian.org mirror.atomki.mta.hu
ftp.ee.debian.org ftp.aso.ee ftp.ee.debian.org
mirrors.dotsrc.org mirrors.dotsrc.org
ftp.lug.ro 7-debian.sil.at ftp.lug.ro
ftp.at.debian.org ftp.at.debian.org
ftp.tu-graz.ac.at ftp.tu-graz.ac.at
debian.inode.at debian.inode.at
debian.lagis.at debian.lagis.at
debian.sil.at <-----
debian.sil.at <-----
debian.iskon.hr debian.iskon.hr
debian.dcc.fc.up.pt 2-ftp.pt.debian.org debian.dcc.fc.up.pt
ftp.pt.debian.org <-----
ukdebian.mirror.anlx.net ukdebian.mirror.anlx.net
debian.superhosting.cz 10-ftp.cz.debian.org debian.superhosting.cz
ftp.cvut.cz ftp.cvut.cz
ftp.zcu.cz ftp.zcu.cz
debian.mirror.web4u.cz debian.mirror.web4u.cz
ftp.sh.cvut.cz ftp.sh.cvut.cz
debian.ignum.cz debian.ignum.cz
mirror.dkm.cz mirror.dkm.cz
ftp.cz.debian.org <-----
ftp.cz.debian.org <-----
ftp.cz.debian.org <-----
ftp.agh.edu.pl 6-ftp.task.gda.pl ftp.agh.edu.pl
ftp.piotrkosoft.net ftp.piotrkosoft.net
ftp.pwr.wroc.pl ftp.pwr.wroc.pl
ftp.man.poznan.pl ftp.man.poznan.pl
ftp.task.gda.pl <-----
ftp.task.gda.pl <-----
ftp.fr.debian.org ftp.fr.debian.org
mirror.sax.uk.as61049.net 3-mirrorservice.org mirror.sax.uk.as61049.net
ftp.funet.fi ftp.funet.fi
mirrorservice.org <-----
ftp.udc.es ftp.udc.es
ftp.fi.debian.org ftp.fi.debian.org
ftp.irb.hr ftp.irb.hr
ftp.pl.debian.org ftp.pl.debian.org
ftp.carnet.hr ftp.carnet.hr
ftp.seclan.com 2-trumpetti.atm.tut.fi ftp.seclan.com
trumpetti.atm.tut.fi <-----
debian.anexia.at debian.anexia.at
debian.mirrors.crysys.hu debian.mirrors.crysys.hit.bme.hu debian.mirrors.crysys.hu
debian.otenet.gr 3-debian.noc.ntua.gr debian.otenet.gr
ftp.cc.uoc.gr ftp.cc.uoc.gr
debian.noc.ntua.gr <-----
debian.doratelekom.com debian.doratelekom.com
ftp.linux.org.tr ftp.tr.debian.org ftp.linux.org.tr
ftp.gul.uc3m.es ftp.gul.uc3m.es
deb-mir1.naitways.net 20-debian.proxad.net deb-mir1.naitways.net
ftp.rezopole.net ftp.rezopole.net
debian.univ-tlse2.fr debian.univ-tlse2.fr
debian.univ-lorraine.fr debian.univ-lorraine.fr
debian.univ-reims.fr debian.univ-reims.fr
mirror.debian.ikoula.com mirror.debian.ikoula.com
debian.mirror.ate.info debian.mirror.ate.info
debian.redparra.com debian.redparra.com
mirror.iranserver.com 2-debian.mirrors.ovh.net mirror2.iranserver.com mirror.iranserver.com
debian.mirrors.ovh.net <-----
ftp.lip6.fr ftp.lip6.fr
debian.mirrors.easynet.fr debian.mirrors.easynet.fr
ftp.proxad.net ftp.proxad.net
debian.revolsys.fr debian.revolsys.fr
debian.ludost.net debian.ludost.net
ftp.iut-bm.univ-fcomte.fr ftp.iut-bm.univ-fcomte.fr
ftp.u-picardie.fr ftp.u-picardie.fr
ftp.univ-pau.fr ftp.univ-pau.fr
ftp.u-strasbg.fr ftp.u-strasbg.fr
debian.proxad.net <-----
ftp.gr.debian.org ftp.gr.debian.org
debian.inhost.pro debian.inhost.pro
syncproxy.eu.debian.org <-----
syncproxy.eu.debian.org <-----
syncproxy.eu.debian.org <-----
syncproxy.eu.debian.org <-----
mirror.as43289.net mirror.as43289.net
ftp.sv.debian.org ftp.sv.debian.org
ftp.si.debian.org 2-debmirror.amis.net ftp.si.debian.org
debmirror.amis.net <-----
debian.salud.gob.sv debian.salud.gob.sv
ftp.ie.debian.org 2-debian.heanet.ie ftp.ie.debian.org
debian.heanet.ie <-----
ftp.hr.debian.org ftp.hr.debian.org
ftp.litnet.lt 2-debian.koyanet.lv mirror.litnet.lt ftp.litnet.lt
debian.koyanet.lv <-----
debian.volia.net debian.volia.net
debian.unal.edu.co debian.unal.edu.co
ftp.ru.debian.org 3-mirror.mephi.ru ftp.ru.debian.org
mirror.neolabs.kz mirror.neolabs.kz
mirror.mephi.ru <-----
syncproxy2.eu.debian.org <-----
debian.mirror.ac.ke debian.mirror.ac.ke syncproxy2.eu.debian.org ftp.nl.debian.org debian.mirror.ac.ke
httpredir.debian.org 60-syncproxy.cna.debian.org 12-debian.gtisc.gatech.edu httpredir.debian.org
mirror.cse.unsw.edu.au 2-mirror.aarnet.edu.au mirror.cse.unsw.edu.au
mirror.aarnet.edu.au <-----
debian.bjtu.edu.cn debian.bjtu.edu.cn
mirror.rit.edu mirrors.rit.edu mirror.rit.edu
ftp.us.debian.org ftp.us.debian.org
dist1.800hosting.com dist1.800hosting.com
mirror.steadfast.net mirror.steadfast.net
mirror.dhakacom.com mirror.dhakacom.com
mirrors.advancedhosters.com mirrors.advancedhosters.com
mirrors.xmission.com mirrors.xmission.com
debian.gtisc.gatech.edu <-----
debian.cse.msu.edu debian.cse.msu.edu
debian-archive.trafficmanager.net debian-archive.trafficmanager.net
mirrors.xjtu.edu.cn 3-mirrors.tuna.tsinghua.edu.cn mirrors.xjtu.edu.cn
ftp2.cn.debian.org ftp2.cn.debian.org
mirrors.tuna.tsinghua.edu.cn <-----
mirrors-usa.go-parts.com 2-mirrors.wikimedia.org mirrors-usa.go-parts.com
mirrors.wikimedia.org <-----
mirrors.lug.mtu.edu mirrors.lug.mtu.edu
mirror.cc.columbia.edu mirror.cc.columbia.edu
debian.cc.lehigh.edu 6-debian.csail.mit.edu debian.cc.lehigh.edu
debian.cs.binghamton.edu mirror.cs.binghamton.edu debian.cs.binghamton.edu
mirrors.dcarsat.com.ar mirrors.dcarsat.com.ar
debian.uchicago.edu debian.uchicago.edu
debian.csail.mit.edu <-----
debian.csail.mit.edu <-----
kebo.vlsm.org 6-debian.mirror.rafal.ca duwey.eepis-its.edu kebo.vlsm.org
mirror.cpsc.ucalgary.ca spiegel.cs.ucalgary.ca mirror.cpsc.ucalgary.ca
debian.mirror.netelligent.ca debian.mirror.netelligent.ca
debian.mirror.gtcomm.net 2-mirror.csclub.uwaterloo.ca debian.mirror.gtcomm.net
mirror.csclub.uwaterloo.ca <-----
debian.mirror.rafal.ca <-----
debian.usu.edu 27-ftp-osl.osuosl.org mirror3.usu.edu debian.usu.edu
mirrors.syringanetworks.net mirrors.syringanetworks.net
debian.csie.ntu.edu.tw debian.csie.ntu.edu.tw
mirrors.linux.iu.edu 5-ftp-chi.osuosl.org mirrors.linux.iu.edu
repository.linux.pf repository.linux.pf
ftp.utexas.edu ftp.utexas.edu
pubmirrors.dal.corespace.com pubmirrors.dal.corespace.com
debianmirror.nkn.in debianmirror.nkn.in
mirrors.cat.pdx.edu mirrors.cat.pdx.edu
rsync.osuosl.org rsync.osuosl.org
mirrors.accretive-networks.net mirrors.accretive-networks.net
debian.mirror.frontiernet.net mirror01.roch.ny.frontiernet.net debian.mirror.frontiernet.net
mirror.ancl.hawaii.edu mirror.ancl.hawaii.edu
debian.osuosl.org debian.osuosl.org
mirror.hmc.edu mirror.hmc.edu
ftp.gtlib.gatech.edu zaphod2.gtlib.gatech.edu ftp.gtlib.gatech.edu
opensource.nchc.org.tw free.nchc.org.tw opensource.nchc.org.tw
debian.ec.as6453.net mmc.geofisica.unam.mx debian.ec.as6453.net
mirror.pregi.net 2-ftp.riken.jp mirror.pregi.net
ftp.riken.jp <-----
debian.ues.edu.sv debian.ues.edu.sv
ftp.mx.debian.org 4-ftp-nyc.osuosl.org 2-mmc.geofisica.unam.mx ftp.mx.debian.org
mmc.geofisica.unam.mx <-----
debian.mirror.constant.com debian.mirror.constant.com
mirrors.gigenet.com mirrors.gigenet.com
ftp-osl.osuosl.org <-----
ftp-osl.osuosl.org <-----
ftp.kr.debian.org syncproxy.wna.debian.org ftp.kr.debian.org

 

Section: volatile

RHostTftp-master time TS Updateftphttprsync

 

Host

 

Section: www

RHostTwww-master time TS http

 

Host

 

Section: CD

The following list is created by matching a list of directories and files of each mirror against the official list of cdimage.debian.org. If a server has "nothing", it does not mean it has no images/jigdos at all, it just does not have them at the right place. And don't trust the protocol checks too much, we do not try too hard to really check this.

iso-cd

iso-dvd

bt-iso

bt-dvd

jigdo-cd

jigdo-dvd

Legend

HostPattern.
RRanking
.Not advertised by this mirror
OkAccessible
AAdvertised
UpdateArchive_update_in_progress file found
TSTracefile status
(T)ypeP: Push-Primary, S: Push-Secondary, L: Leaf, ?: not in DB (will be leaf, of course)

Trace errors:
1: No master file found
2: Older (non-valid) timestamp files found
3: Timestamp files contain invalid dates
4: Tracefiles are not downloadable
5: Mirror is no PRIMARY (missing tracefiles)
6: Mirror is no SECONDARY (missing tracefiles)
7: There's no tracefile for the own mirror
8: No tracefile could be found

Errors (cut at 200 bytes) (full error text available)

1: ERROR: 500 LWP::Protocol::MyFTP: connect: Connection refused
2: ERROR: 500 Can't connect to mirrors.ispros.com.bd:80
3: rsync error: error in socket IO (code 10) at clientserver.c(128) [Receiver=3.1.1]
4:
5: ERROR: 500 Can't connect to debian.mirror.utn.edu.ar:80
6: ERROR: 500 Can't connect to dennou-h.gfd-dennou.org:80
7: rsync error: error in socket IO (code 10) at clientserver.c(128) [Receiver=3.1.1]
8: rsync error: error starting client-server protocol (code 5) at main.c(1653) [Receiver=3.1.1]
9: ERROR: 500 LWP::Protocol::MyFTP: connect: timeout
10: ERROR: 500 Can't connect to www.go-parts.com:443 (certificate verify failed)
11: rsync error: error in socket IO (code 10) at clientserver.c(128) [Receiver=3.1.1]
12: rsync error: error in socket IO (code 10) at clientserver.c(128) [Receiver=3.1.1]
13: ERROR: 500 Can't connect to ftp.tiscali.nl:80
14: rsync error: error in socket IO (code 10) at clientserver.c(128) [Receiver=3.1.1]
15: ERROR: 404 Can't chdir to debian
16: rsync error: error starting client-server protocol (code 5) at main.c(1653) [Receiver=3.1.1]
17: ERROR: Index of /pub/debian/project/trace/ Index of /pub/debian/project/trace/ Name Last modified Size Description Parent Direct
18: rsync error: error in socket IO (code 10) at clientserver.c(128) [Receiver=3.1.1]
19: rsync error: error starting client-server protocol (code 5) at main.c(1653) [Receiver=3.1.1]
20: ERROR: 404 Not Found
21: rsync error: error starting client-server protocol (code 5) at main.c(1653) [Receiver=3.1.1]
22: rsync error: error in socket IO (code 10) at clientserver.c(128) [Receiver=3.1.1]
23: rsync error: error in socket IO (code 10) at clientserver.c(128) [Receiver=3.1.1]
24: ERROR: 404 Can't chdir to project
25: rsync error: error in socket IO (code 10) at clientserver.c(128) [Receiver=3.1.1]
26: rsync error: error in socket IO (code 10) at clientserver.c(128) [Receiver=3.1.1]
27: rsync error: error in socket IO (code 10) at clientserver.c(128) [Receiver=3.1.1]
28: rsync error: some files/attrs were not transferred (see previous errors) (code 23) at main.c(1655) [Receiver=3.1.1]
29: rsync error: error in socket IO (code 10) at clientserver.c(128) [Receiver=3.1.1]
30: rsync error: error in socket IO (code 10) at clientserver.c(128) [Receiver=3.1.1]
31: ERROR: 500 read timeout
32: ERROR: Index of /debian/project/trace Index of /debian/project/trace NameLast modifiedSize Parent Directory&nbsp; - Apache/2.4.7 (Ubuntu) Server at debian.csg.uzh.ch Port 80
33: ERROR: 500 Can't connect to mirrors.centarra.com:80
34: rsync error: error in socket IO (code 10) at clientserver.c(128) [Receiver=3.1.1]
35: ERROR: 500 Can't connect to buaya.klas.or.id:443 (certificate verify failed)
36: rsync error: error in socket IO (code 10) at clientserver.c(128) [Receiver=3.1.1]
37: rsync error: some files/attrs were not transferred (see previous errors) (code 23) at main.c(1655) [Receiver=3.1.1]
38: rsync error: error in socket IO (code 10) at clientserver.c(128) [Receiver=3.1.1]
39: rsync error: error in socket IO (code 10) at clientserver.c(128) [Receiver=3.1.1]
40: rsync error: error in socket IO (code 10) at clientserver.c(128) [Receiver=3.1.1]
41: ERROR: 500 Can't connect to ftp.roedu.net:80
42: rsync error: error in socket IO (code 10) at clientserver.c(128) [Receiver=3.1.1]
43: <!DOCTYPE html> <html lang="de"> <head> <title>FTP-Archivbrowser | FTP-Archiv ftp.tu-chemnitz.de | Anwendungen und Dienste | URZ | TU Chemnitz</title> <meta charset="utf-8" /> <meta name="author" con
44: rsync error: error in socket IO (code 10) at clientserver.c(128) [Receiver=3.1.1]
45: rsync error: error in socket IO (code 10) at clientserver.c(128) [Receiver=3.1.1]
46: ERROR: Index of /debian/project/trace/ Index of /debian/project/trace/ mode links bytes last-changed name dr-x 2 512 Jan 19 22:46 ./ dr-x 4 512 Nov 18 2008 ../ -r-- 1
47: ERROR: 403 Forbidden
48: rsync error: some files/attrs were not transferred (see previous errors) (code 23) at main.c(1655) [Receiver=3.1.1]
49: ERROR: 503 Service Unavailable
50: rsync error: error in socket IO (code 10) at clientserver.c(128) [Receiver=3.1.1]
51: ERROR: 401 Login authentication failed
52: rsync error: error in socket IO (code 10) at clientserver.c(128) [Receiver=3.1.1]
53: rsync error: error in socket IO (code 10) at clientserver.c(128) [Receiver=3.1.1]
54: ERROR: 500 LWP::Protocol::MyFTP: connect: Network is unreachable
55: ERROR: 500 Can't connect to ftp.linux.it:80
56: rsync error: error in socket IO (code 10) at clientserver.c(128) [Receiver=3.1.1]
57: rsync error: error in socket IO (code 10) at clientserver.c(128) [Receiver=3.1.1]
58: rsync: change_dir "/project/trace" (in debian) failed: Permission denied (13)
59: ERROR: -----BEGIN PGP SIGNED MESSAGE----- Hash: SHA512 Format: 1.8 Date: Sun, 30 Oct 2016 07:39:08 +0100 Source: gnutls28 Binary: libgnutls28-dev libgnutls-deb0-28 libgnutls28-dbg gnutls-bin gnutls-d
60: rsync error: some files/attrs were not transferred (see previous errors) (code 23) at main.c(1655) [Receiver=3.1.1]
61: ERROR: 500 Internal Server Error
62: rsync error: error in rsync protocol data stream (code 12) at io.c(276) [Receiver=3.1.1]
63: ERROR: 500 Can't connect to noodle.portalus.net:80
64: rsync error: some files/attrs were not transferred (see previous errors) (code 23) at main.c(1655) [Receiver=3.1.1]
65: ERROR: 401 Login incorrect.
66: rsync error: error in socket IO (code 10) at clientserver.c(128) [Receiver=3.1.1]
67: ERROR: GDS - http://gd.tuwien.ac.at/opsys/linux/debian/project/trace/ please support us by ordering here at &nbsp; &nbsp; &nbsp;
68: rsync error: error in socket IO (code 10) at clientserver.c(128) [Receiver=3.1.1]
69: ERROR: 500 LWP::Protocol::MyFTP: connect: No route to host
70: ERROR: 500 Can't connect to debian.las.ic.unicamp.br:80
71: rsync error: error in socket IO (code 10) at clientserver.c(128) [Receiver=3.1.1]
72: <!DOCTYPE html PUBLIC "-//W3C//DTD XHTML 1.0 Transitional//EN" "http://www.w3.org/TR/xhtml1/DTD/xhtml1-transitional.dtd"> <html xmlns="http://www.w3.org/1999/xhtml"> <head> <meta http-equiv="Cont
73: rsync error: error in socket IO (code 10) at clientserver.c(128) [Receiver=3.1.1]
74: ERROR: 500 Can't connect to ftp3.nrc.ca:80
75: rsync error: error in socket IO (code 10) at clientserver.c(128) [Receiver=3.1.1]
76: rsync error: error starting client-server protocol (code 5) at main.c(1653) [Receiver=3.1.1]
77: rsync error: error starting client-server protocol (code 5) at main.c(1653) [Receiver=3.1.1]
78: rsync error: some files/attrs were not transferred (see previous errors) (code 23) at main.c(1655) [Receiver=3.1.1]
79: rsync error: error in socket IO (code 10) at clientserver.c(128) [Receiver=3.1.1]
80: ERROR: 500 Status read failed: Connection reset by peer
81: ERROR: 500 Can't connect to mirrors.e2wsolutions.com:80
82: ERROR: 500 Can't connect to ftp-mirror.internap.com:80
83: rsync error: error in socket IO (code 10) at clientserver.c(128) [Receiver=3.1.1]
84: ERROR: 401 OOPS: cannot change directory:/home/DEBIAN/REPO/BASE-FTP/
85: rsync error: timeout in data send/receive (code 30) at io.c(195) [Receiver=3.1.1]
86: rsync error: error in socket IO (code 10) at clientserver.c(128) [Receiver=3.1.1]
87: rsync error: error in socket IO (code 10) at clientserver.c(128) [Receiver=3.1.1]
88: ERROR: 404 Can't chdir to archive
89: rsync error: error in socket IO (code 10) at clientserver.c(128) [Receiver=3.1.1]
90: rsync error: error in socket IO (code 10) at clientserver.c(128) [Receiver=3.1.1]
91: rsync error: error in socket IO (code 10) at clientserver.c(128) [Receiver=3.1.1]
92: rsync error: some files/attrs were not transferred (see previous errors) (code 23) at main.c(1655) [Receiver=3.1.1]
93: rsync error: error in socket IO (code 10) at clientserver.c(128) [Receiver=3.1.1]
94: rsync error: error in socket IO (code 10) at clientserver.c(128) [Receiver=3.1.1]
95: rsync error: error in socket IO (code 10) at clientserver.c(128) [Receiver=3.1.1]
96: rsync error: error starting client-server protocol (code 5) at main.c(1653) [Receiver=3.1.1]